EW4792 Weather Reports


Display with metric or nautical units.
time (UTC)temp
F
wind
direction
speed
MPH
gust
MPH
rain 1hr
in
rain 24hr
in
rain mn
in
humidity
%
barometer
mb
20260506051125 76 151 11.0 15.0 0.00 0.00 0.00 88 1010.1
20260506050619 76 148 10.0 16.0 0.00 0.00 0.00 88 1010.1
20260506050131 76 162 11.0 16.0 0.00 0.00 0.00 88 1010.0
20260506044709 77 154 10.0 19.0 0.00 0.00 0.00 88 1010.0
20260506044205 77 157 12.0 19.0 0.00 0.00 0.00 88 1010.0
20260506043705 77 163 13.0 19.0 0.00 0.00 0.00 88 1010.0
20260506043114 77 149 14.0 21.0 0.00 0.00 0.00 88 1009.9
20260506042611 77 179 16.0 21.0 0.00 0.00 0.00 88 1010.0
20260506042208 77 174 13.0 16.0 0.00 0.00 0.00 88 1010.0
20260506041704 77 156 13.0 18.0 0.00 0.00 0.00 88 1010.0
20260506041201 77 174 15.0 18.0 0.00 0.00 0.00 88 1010.0
20260506040204 77 162 15.0 20.0 0.00 0.00 0.00 87 1009.9
20260506035700 77 166 16.0 20.0 0.00 0.00 0.00 87 1009.8
20260506035155 77 161 10.0 13.0 0.00 0.00 0.00 87 1009.8
20260506034704 77 163 10.0 15.0 0.00 0.00 0.00 87 1009.6
20260506034205 77 167 12.0 15.0 0.00 0.00 0.00 87 1009.5
20260506033644 78 166 11.0 15.0 0.00 0.00 0.00 87 1009.5
20260506033159 78 155 11.0 16.0 0.00 0.00 0.00 87 1009.4
20260506032655 78 165 12.0 16.0 0.00 0.00 0.00 87 1009.2
20260506032217 78 141 12.0 16.0 0.00 0.00 0.00 86 1009.0
20260506031709 78 157 13.0 16.0 0.00 0.00 0.00 86 1008.9
20260506031206 78 157 13.0 20.0 0.00 0.00 0.00 86 1009.0
20260506030710 78 162 14.0 20.0 0.00 0.00 0.00 86 1008.9
20260506030212 78 158 17.0 20.0 0.00 0.00 0.00 86 1008.8
20260506025711 79 157 15.0 19.0 0.00 0.00 0.00 85 1008.7
20260506025210 79 150 12.0 16.0 0.00 0.00 0.00 85 1008.7
20260506024707 79 155 12.0 14.0 0.00 0.00 0.00 85 1008.7
20260506024145 79 146 12.0 14.0 0.00 0.00 0.00 85 1008.6
20260506023210 79 152 12.0 15.0 0.00 0.00 0.00 84 1008.4
20260506022619 79 147 13.0 18.0 0.00 0.00 0.00 84 1008.2
20260506022144 80 148 14.0 18.0 0.00 0.00 0.00 83 1008.2
20260506021659 80 146 14.0 18.0 0.00 0.00 0.00 83 1008.1
20260506021155 80 145 11.0 18.0 0.00 0.00 0.00 83 1008.2
20260506020650 79 138 7.0 9.0 0.00 0.00 0.00 83 1008.2
20260506020147 80 128 7.0 9.0 0.00 0.00 0.00 82 1008.0
20260506015621 80 103 7.0 9.0 0.00 0.00 0.00 82 1008.0
20260506015124 80 104 6.0 8.0 0.00 0.00 0.00 82 1007.9
20260506014620 80 116 7.0 8.0 0.00 0.00 0.00 82 1007.8
20260506014116 80 114 6.0 7.0 0.00 0.00 0.00 82 1007.7
20260506013617 80 113 5.0 7.0 0.00 0.00 0.00 82 1007.7
20260506013201 80 115 5.0 7.0 0.00 0.00 0.00 82 1007.6
20260506012207 81 127 5.0 6.0 0.00 0.00 0.00 81 1007.5
20260506011656 81 128 5.0 6.0 0.00 0.00 0.00 81 1007.7
20260506011131 81 120 5.0 7.0 0.00 0.00 0.00 81 1007.7
20260506010732 81 126 5.0 8.0 0.00 0.00 0.00 81 1007.6
20260506010204 81 133 6.0 8.0 0.00 0.00 0.00 81 1007.6
20260506005207 81 138 6.0 7.0 0.00 0.00 0.00 82 1007.6
20260506004611 80 133 4.0 6.0 0.00 0.00 0.00 83 1007.7
20260506004211 80 166 3.0 4.0 0.00 0.00 0.00 83 1007.6
20260506003704 80 168 3.0 4.0 0.00 0.00 0.00 82 1007.6
20260506002627 79 168 0.0 1.0 0.00 0.00 0.00 82 1007.6
20260506002122 79 168 1.0 1.0 0.00 0.00 0.00 82 1007.5
20260506001724 79 168 0.0 4.0 0.00 0.00 0.00 82 1007.5
20260506001158 79 168 1.0 4.0 0.00 0.00 0.00 82 1007.5
20260506000652 80 168 2.0 5.0 0.00 0.00 0.00 82 1007.5
20260506000151 80 167 3.0 6.0 0.00 0.00 0.00 81 1007.4
20260505235634 80 168 5.0 6.0 0.00 0.00 0.00 81 1007.5
20260505235125 80 176 4.0 7.0 0.00 0.00 0.00 81 1007.4
20260505234623 80 172 5.0 9.0 0.00 0.00 0.00 81 1007.4
20260505234122 81 162 7.0 11.0 0.00 0.00 0.00 80 1007.2
20260505233644 81 166 9.0 11.0 0.00 0.00 0.00 80 1007.3
20260505233142 80 178 8.0 9.0 0.00 0.00 0.00 80 1007.3
20260505232641 81 172 8.0 9.0 0.00 0.00 0.00 80 1007.2
20260505232137 80 165 5.0 7.0 0.00 0.00 0.00 80 1007.2
20260505231650 81 176 4.0 8.0 0.00 0.00 0.00 80 1007.2
20260505231147 81 182 5.0 11.0 0.00 0.00 0.00 80 1007.1
20260505230649 81 178 8.0 12.0 0.00 0.00 0.00 80 1007.2
20260505230215 81 174 8.0 12.0 0.00 0.00 0.00 80 1006.9
20260505225706 81 162 11.0 13.0 0.00 0.00 0.00 80 1007.0
20260505225203 80 172 10.0 13.0 0.00 0.00 0.00 80 1006.8
20260505224658 81 179 9.0 14.0 0.00 0.00 0.00 80 1007.1
20260505224138 80 149 12.0 14.0 0.00 0.00 0.00 80 1006.9
20260505223617 80 159 11.0 12.0 0.00 0.00 0.00 80 1007.1
20260505223138 81 163 8.0 11.0 0.00 0.00 0.00 80 1007.2
20260505222633 81 187 8.0 12.0 0.00 0.00 0.00 80 1007.1
20260505222148 81 174 10.0 14.0 0.00 0.00 0.00 80 1007.2
20260505221659 80 181 11.0 14.0 0.00 0.00 0.00 80 1006.9
20260505221221 80 185 11.0 13.0 0.00 0.00 0.00 80 1007.0
20260505220119 80 179 7.0 13.0 0.00 0.00 0.00 81 1007.2
20260505215614 80 177 9.0 13.0 0.00 0.00 0.00 81 1007.2
20260505215117 80 174 11.0 13.0 0.00 0.00 0.00 81 1007.2
20260505214613 80 173 11.0 13.0 0.00 0.00 0.00 81 1007.3
20260505214115 79 179 9.0 11.0 0.00 0.00 0.00 82 1007.3
20260505213630 79 175 6.0 9.0 0.00 0.00 0.00 82 1007.7
20260505213144 79 182 7.0 11.0 0.00 0.00 0.00 82 1007.8
20260505212208 79 153 8.0 10.0 0.00 0.00 0.00 82 1007.8
20260505211706 79 193 6.0 12.0 0.00 0.00 0.00 82 1007.8
20260505211203 79 163 10.0 12.0 0.00 0.00 0.00 82 1007.9
20260505210655 79 155 10.0 14.0 0.00 0.00 0.00 82 1007.9
20260505210148 79 147 11.0 14.0 0.00 0.00 0.00 82 1008.0
20260505205642 79 166 10.0 13.0 0.00 0.00 0.00 83 1008.0
20260505204706 79 200 5.0 9.0 0.00 0.00 0.00 83 1008.1
20260505204204 79 179 7.0 11.0 0.00 0.00 0.00 82 1008.2
20260505203641 79 160 9.0 11.0 0.00 0.00 0.00 82 1008.3
20260505202711 79 175 6.0 14.0 0.00 0.00 0.00 83 1008.7
20260505202210 79 199 8.0 14.0 0.00 0.00 0.00 83 1008.6
20260505201702 79 202 7.0 11.0 0.00 0.00 0.00 83 1008.7
20260505201154 78 202 8.0 12.0 0.00 0.00 0.00 83 1008.8
20260505200649 78 172 11.0 12.0 0.00 0.00 0.00 83 1008.8
20260505200139 78 186 9.0 12.0 0.00 0.00 0.00 83 1008.8
20260505195612 78 188 10.0 12.0 0.00 0.00 0.00 84 1008.8
20260505195126 78 175 7.0 12.0 0.00 0.00 0.00 84 1008.9
20260505194624 78 203 8.0 13.0 0.00 0.00 0.00 84 1009.0
20260505194127 78 175 8.0 11.0 0.00 0.00 0.00 84 1009.1
20260505193625 78 197 9.0 12.0 0.00 0.00 0.00 84 1009.0
20260505193125 78 169 6.0 12.0 0.00 0.00 0.00 84 1009.1
20260505192627 78 216 8.0 12.0 0.00 0.00 0.00 84 1009.3
20260505192142 77 215 8.0 12.0 0.00 0.00 0.00 85 1009.3
20260505191210 77 193 10.0 15.0 0.00 0.00 0.00 85 1009.2
20260505190621 77 182 7.0 10.0 0.00 0.00 0.00 86 1009.2
20260505190144 77 178 6.0 14.0 0.00 0.00 0.00 86 1009.3
20260505185657 77 206 6.0 14.0 0.00 0.00 0.00 86 1009.5
20260505185210 76 189 7.0 12.0 0.00 0.00 0.00 86 1009.7
20260505184707 76 163 9.0 12.0 0.00 0.00 0.00 86 1009.7
20260505184115 76 203 7.0 10.0 0.00 0.00 0.00 86 1009.9
20260505183717 76 172 8.0 10.0 0.00 0.00 0.00 86 1009.9
20260505183133 76 181 7.0 11.0 0.00 0.00 0.00 87 1010.0
20260505182634 76 207 9.0 11.0 0.00 0.00 0.00 86 1010.0
20260505182148 76 212 5.0 10.0 0.00 0.00 0.00 86 1010.0
20260505181642 76 222 7.0 12.0 0.00 0.00 0.00 86 1010.2
20260505181122 76 212 10.0 12.0 0.00 0.00 0.00 86 1010.1
20260505180614 76 198 8.0 13.0 0.00 0.00 0.00 87 1010.1
20260505180125 76 213 9.0 13.0 0.00 0.00 0.00 87 1010.1
20260505175645 76 238 6.0 9.0 0.00 0.00 0.00 87 1010.2
20260505174706 75 226 8.0 11.0 0.00 0.00 0.00 87 1010.2
20260505174204 75 247 8.0 11.0 0.00 0.00 0.00 87 1010.2
20260505173659 75 233 7.0 14.0 0.00 0.00 0.00 88 1010.2
20260505172708 75 213 5.0 11.0 0.00 0.00 0.00 88 1010.3
20260505172119 74 213 8.0 13.0 0.00 0.00 0.00 88 1010.4
20260505171725 74 236 9.0 13.0 0.00 0.00 0.00 89 1010.3
20260505171204 74 239 5.0 8.0 0.00 0.00 0.00 89 1010.3
20260505170701 74 204 3.0 8.0 0.00 0.00 0.00 89 1010.5
20260505170131 74 225 7.0 13.0 0.00 0.00 0.00 89 1010.5
20260505165706 74 230 5.0 13.0 0.00 0.00 0.00 89 1010.6
20260505165200 74 224 7.0 13.0 0.00 0.00 0.00 89 1010.6
20260505164657 73 207 10.0 13.0 0.00 0.00 0.00 89 1010.6
20260505164152 73 230 8.0 11.0 0.00 0.00 0.00 89 1010.5
20260505163647 73 206 7.0 11.0 0.00 0.00 0.00 90 1010.5
20260505163121 73 205 8.0 14.0 0.00 0.00 0.00 90 1010.5
20260505162629 73 222 11.0 14.0 0.00 0.00 0.00 90 1010.4
20260505162127 73 224 9.0 14.0 0.00 0.00 0.00 90 1010.4
20260505161624 73 201 8.0 12.0 0.00 0.00 0.00 90 1010.3
20260505161127 73 222 8.0 13.0 0.00 0.00 0.00 90 1010.3
20260505160622 72 206 8.0 13.0 0.00 0.00 0.00 90 1010.2
20260505160120 72 229 8.0 15.0 0.00 0.00 0.00 90 1010.3
20260505153151 72 214 9.0 11.0 0.00 0.00 0.00 90 1010.3
20260505152645 71 199 8.0 12.0 0.00 0.00 0.00 91 1010.3
20260505152125 71 214 8.0 12.0 0.00 0.00 0.00 91 1010.3
20260505151623 71 206 9.0 12.0 0.00 0.00 0.00 90 1010.2
20260505151204 71 223 8.0 9.0 0.00 0.00 0.00 90 1010.3
20260505150613 71 223 5.0 8.0 0.00 0.00 0.00 91 1010.3
20260505150155 71 213 6.0 10.0 0.00 0.00 0.00 91 1010.3
20260505140159 71 218 10.0 18.0 0.00 0.00 0.00 91 1010.3
20260505130157 71 221 14.0 19.0 0.00 0.00 0.00 91 1009.6
20260505124656 71 205 12.0 15.0 0.00 0.00 0.00 90 1009.6
20260505124133 71 203 13.0 15.0 0.00 0.00 0.00 90 1009.5
20260505123653 71 197 10.0 14.0 0.00 0.00 0.00 90 1009.5
20260505123145 71 222 11.0 16.0 0.00 0.00 0.00 90 1009.4
20260505122657 71 210 10.0 16.0 0.00 0.00 0.00 90 1009.3
20260505122148 71 213 11.0 16.0 0.00 0.00 0.00 90 1009.3
20260505121644 71 216 10.0 12.0 0.00 0.00 0.00 90 1009.1
20260505121141 71 205 10.0 14.0 0.00 0.00 0.00 90 1009.1
20260505120624 71 215 10.0 16.0 0.00 0.00 0.00 90 1009.0
20260505120122 71 228 11.0 16.0 0.00 0.00 0.00 90 1009.1
20260505115644 71 211 11.0 16.0 0.00 0.00 0.00 90 1009.1
20260505115208 71 213 11.0 16.0 0.00 0.00 0.00 90 1009.1
20260505114706 71 205 12.0 16.0 0.00 0.00 0.00 90 1009.0
20260505114143 71 219 6.0 11.0 0.00 0.00 0.00 90 1009.0
20260505113639 71 201 8.0 12.0 0.00 0.00 0.00 90 1009.0
20260505113134 71 197 9.0 14.0 0.00 0.00 0.00 90 1009.0
20260505112701 71 220 9.0 14.0 0.00 0.00 0.00 90 1009.0
20260505111615 71 219 12.0 18.0 0.00 0.00 0.00 90 1009.0
20260505111112 71 220 10.0 14.0 0.00 0.00 0.00 90 1008.8
20260505110717 71 207 12.0 14.0 0.00 0.00 0.00 90 1008.8
20260505102145 71 211 11.0 16.0 0.00 0.00 0.00 90 1009.0
20260505101642 71 211 12.0 16.0 0.00 0.00 0.00 90 1009.0
20260505101147 71 198 12.0 20.0 0.00 0.00 0.00 90 1009.1
20260505100210 71 217 11.0 20.0 0.00 0.00 0.00 90 1009.4
20260505095705 71 212 13.0 20.0 0.00 0.00 0.00 90 1009.2
20260505095157 71 212 12.0 16.0 0.00 0.00 0.00 90 1009.2
20260505094653 71 197 10.0 19.0 0.00 0.00 0.00 90 1009.1
20260505094153 71 209 13.0 19.0 0.00 0.00 0.00 90 1009.2
20260505093649 71 205 11.0 19.0 0.00 0.00 0.00 90 1009.4
20260505093145 71 219 13.0 19.0 0.00 0.00 0.00 90 1009.4
20260505092211 71 193 13.0 21.0 0.00 0.00 0.00 89 1009.3
20260505091717 71 193 10.0 18.0 0.00 0.00 0.00 89 1009.2
20260505091154 71 202 11.0 18.0 0.00 0.00 0.00 89 1009.2
20260505090644 71 206 10.0 15.0 0.00 0.00 0.00 89 1009.4
20260505090141 71 201 11.0 15.0 0.00 0.00 0.00 89 1009.7
20260505085643 71 204 10.0 15.0 0.00 0.00 0.00 89 1009.4
20260505085141 71 199 10.0 19.0 0.00 0.00 0.00 89 1009.4
20260505084646 71 203 10.0 21.0 0.00 0.00 0.00 89 1009.5
20260505084149 71 211 12.0 21.0 0.00 0.00 0.00 89 1009.7
20260505083648 71 199 10.0 13.0 0.00 0.00 0.00 89 1009.7
20260505083144 71 197 11.0 13.0 0.00 0.00 0.00 89 1009.7
20260505082640 71 188 9.0 14.0 0.00 0.00 0.00 89 1009.6
20260505082133 71 202 9.0 13.0 0.00 0.00 0.00 89 1010.0
20260505081632 71 201 9.0 18.0 0.00 0.00 0.00 89 1009.8
20260505081113 71 207 11.0 18.0 0.00 0.00 0.00 89 1009.8
20260505080613 71 209 10.0 14.0 0.00 0.00 0.00 89 1010.0
20260505080124 71 195 9.0 16.0 0.00 0.00 0.00 89 1010.1
20260505075620 71 205 13.0 16.0 0.00 0.00 0.00 89 1010.0
20260505075144 71 188 11.0 16.0 0.00 0.00 0.00 89 1010.1
20260505074624 71 202 10.0 15.0 0.00 0.00 0.00 88 1010.1
20260505074123 71 201 13.0 18.0 0.00 0.00 0.00 88 1010.2
20260505073643 71 201 9.0 18.0 0.00 0.00 0.00 88 1010.3
20260505073143 71 180 11.0 18.0 0.00 0.00 0.00 88 1010.4
20260505072656 71 191 12.0 18.0 0.00 0.00 0.00 88 1010.5
20260505072149 71 194 12.0 19.0 0.00 0.00 0.00 88 1010.5
20260505071645 71 193 13.0 21.0 0.00 0.00 0.00 88 1010.7
20260505071141 71 217 14.0 23.0 0.00 0.00 0.00 88 1010.6
20260505070626 71 188 12.0 20.0 0.00 0.00 0.00 88 1010.9
20260505070119 71 192 12.0 15.0 0.00 0.00 0.00 88 1010.9
20260505065614 71 197 11.0 16.0 0.00 0.00 0.00 88 1011.1
20260505065127 71 191 10.0 20.0 0.00 0.00 0.00 88 1011.0
20260505064641 71 180 12.0 20.0 0.00 0.00 0.00 88 1011.1
20260505064113 71 200 10.0 19.0 0.00 0.00 0.00 88 1011.1
20260505063626 71 182 11.0 16.0 0.00 0.00 0.00 88 1011.2
20260505063118 71 178 11.0 16.0 0.00 0.00 0.00 88 1011.1
20260505062615 71 216 12.0 16.0 0.00 0.00 0.00 88 1011.2
20260505062128 71 190 10.0 14.0 0.00 0.00 0.00 88 1011.2
20260505061622 71 201 9.0 16.0 0.00 0.00 0.00 87 1011.2
20260505061114 71 197 9.0 15.0 0.00 0.00 0.00 87 1011.3
20260505060627 71 188 9.0 14.0 0.00 0.00 0.00 87 1011.4
20260505060116 71 184 11.0 15.0 0.00 0.00 0.00 87 1011.2
20260505055612 71 180 11.0 16.0 0.00 0.00 0.00 87 1011.2
20260505055124 71 187 11.0 18.0 0.00 0.00 0.00 87 1011.2
20260505054617 71 180 13.0 19.0 0.00 0.00 0.00 87 1011.1